Home > Weather > Ancona > Past weeks

Flag for Italy Past Weather in Ancona, Italy — Yesterday and Last 2 Weeks

Now
72 °F

Clear.


Feels Like: 75 °F
Forecast: 68 / 80 °F
Wind: 2 mph from North

Location: Falconara

Current Time: Jun 28, 2016 at 12:26:16 AM

Latest Report: Jun 27, 2016 at 10:50 PM


Visibility: 10 mi

Pressure: 29.98 "Hg

Humidity: 69%

Dew Point: 61 °F

Location of AnconaLocation

Past Weather in Ancona — Graph

°F

Ancona Temperature Yesterday

Maximum temperature yesterday: 86 °F (at 12:50 PM)
Minimum temperature yesterday: 70 °F (at 5:50 AM)
Average temperature yesterday: 77 °F

High & Low Weather Summary for the Past Weeks

 TemperatureHumidityPressure
High90 °F (Jun 25, 3:50 PM)100% (Jun 14, 2:50 AM)30.18 "Hg (Jun 14, 2:50 AM)
Low59 °F (Jun 14, 5:50 AM)36% (Jun 17, 10:50 AM)29.53 "Hg (Jun 16, 6:50 PM)
Average72 °F71%29.90 "Hg
* Reported Jun 12 10:50 PM — Jun 27 10:50 PM, Ancona, Weather by CustomWeather, © 2016

Note: Actual official high and low records may vary slightly from our data, if they occured in-between our weather recording intervals... More about our weather records

Advertising

Ancona Weather History for the Previous 24 Hours

Scroll right to see more
 ConditionsComfort  
Time TempWeatherWind HumidityBarometerVisibility
10:50 PM
Mon, Jun 27
72 °FClear.2 mph69%29.98 "Hg10 mi
9:50 PM73 °FSunny.5 mph65%29.95 "Hg10 mi
8:50 PM75 °FPassing clouds.3 mph57%29.92 "HgN/A
7:50 PM75 °FPassing clouds.3 mph57%29.92 "HgN/A
6:50 PM79 °FScattered clouds.10 mph58%29.92 "HgN/A
5:50 PM82 °FScattered clouds.5 mph37%29.92 "HgN/A
4:50 PM81 °FThunderstorms. Scattered clouds.6 mph51%29.92 "HgN/A
3:50 PM81 °FScattered clouds.10 mph51%29.89 "HgN/A
2:50 PM81 °FPassing clouds.13 mph62%29.89 "HgN/A
1:50 PM84 °FPassing clouds.8 mph55%29.89 "HgN/A
12:50 PM86 °FPassing clouds.12 mph40%29.89 "HgN/A
11:50 AM84 °FPassing clouds.9 mph51%29.92 "HgN/A
10:50 AM81 °FPassing clouds.10 mph54%29.92 "HgN/A
9:50 AM79 °FPassing clouds.8 mph58%29.92 "HgN/A
8:50 AM77 °FPassing clouds.7 mph61%29.92 "HgN/A
7:50 AM75 °FPassing clouds.3 mph69%29.89 "HgN/A
6:50 AM73 °FPassing clouds.3 mph69%29.89 "HgN/A
5:50 AM70 °FClear.2 mph78%29.89 "Hg10 mi
4:50 AM72 °FClear.5 mph73%29.89 "Hg10 mi
3:50 AM75 °FClear.2 mph65%29.89 "Hg10 mi
2:50 AM75 °FPassing clouds.3 mph65%29.89 "HgN/A
1:50 AM75 °FClear.5 mph65%29.89 "Hg10 mi
12:50 AM77 °FClear.3 mph57%29.89 "Hg10 mi
Weather by CustomWeather, © 2016

See weather overviewHow to use our weather pages